{"data":{"norad_id":45185,"intl_designator":"2020-012H","name":"STARLINK-1216","alt_names":[],"object_type":"PAYLOAD","status":"ACTIVE","operator":null,"country":"US","launch_date":"2020-02-17","launch_site_code":"AFETR","launch_vehicle":null,"mission":null,"orbit_class":"UNKNOWN","rcs_meters":null,"size_class":null,"mass_kg":null,"dimensions":null,"purposes":["comms"],"wikipedia_slug":null,"has_3d_model":false,"image_url":null,"decayed_at":null,"tle_current":{"epoch":"2026-09-19T09:55:10.682112Z","epoch_age_seconds":108337,"freshness":"FRESH","line1":"1 45185U 20012H   26262.41331808  .00016484  00000+0  35006-3 0  9993","line2":"2 45185  53.1535 210.2189 0003101  58.2967 301.8342 15.45184470364689","mean_motion":15.4518447,"eccentricity":0.0003101,"inclination_deg":53.1535,"raan_deg":210.2189,"arg_perigee_deg":58.2967,"mean_anomaly_deg":301.8342,"bstar":0.00035006,"rev_number":36468,"period_min":93.192756460981,"perigee_km":428.72463492552,"apogee_km":432.94756004058,"semimajor_km":6808.9730974831,"source":"CELESTRAK","updated_at":"2026-09-20T09:00:38.226020Z"}}}